Location: Malcolm X Square
(37.7810°N, 122.4297°W)
Time: 23:55:47
(UTC+00:00)

Cosmos 494 Rocket - Pass Details

Date: 13 April 2024
Orbit: 740 x 768 km, 74.1° (Epoch: 21 May)

Event Time Altitude Azimuth Distance (km) Brightness Sun altitude
Exits shadow 13:02:22 - 216° (SW) 2,946 6.5 -7.3°
Reaches altitude 10° 13:04:11 10° 222° (SW) 2,273 5.9 -7.0°
Maximum altitude 13:09:03 42° 293° (WNW) 1,061 4.4 -6.1°
Drops below altitude 10° 13:13:56 10° 4° (N) 2,270 6.7 -5.2°
Sets 13:16:25 0° 11° (NNE) 3,194 7.6 -4.7°
